Total_Precipitation_Accumulation
0.54 0.46 0.60 0.60 0.50 0.55 0.73 0.59 0.47 0.20 0.14 0.13 0.14 0.15 0.13 0.12 0.08 0.06 0.04 0.04 0.04 0.04 0.04 0.05 0.06 0.05 0.05 0.06 0.07 0.09 0.12 0.13 0.12 0.11 0.12 0.13 0.12 0.11 0.09 0.08 0.07 0.07 0.08 0.10
0.51 0.43 0.54 0.55 0.44 0.42 0.40 0.35 0.31 0.23 0.21 0.13 0.14 0.15 0.14 0.13 0.08 0.06 0.05 0.03 0.03 0.04 0.03 0.03 0.04 0.04 0.04 0.05 0.07 0.09 0.13 0.16 0.15 0.13 0.13 0.15 0.17 0.16 0.15 0.15 0.16 0.17 0.20 0.23
0.54 0.38 0.48 0.54 0.39 0.32 0.27 0.22 0.23 0.27 0.22 0.13 0.16 0.17 0.16 0.14 0.10 0.06 0.04 0.03 0.03 0.04 0.02 0.03 0.04 0.04 0.04 0.06 0.08 0.10 0.15 0.23 0.22 0.21 0.22 0.21 0.25 0.28 0.29 0.31 0.33 0.36 0.41 0.47
0.51 0.44 0.54 0.38 0.20 0.16 0.15 0.14 0.14 0.16 0.14 0.13 0.18 0.18 0.13 0.10 0.08 0.06 0.03 0.03 0.02 0.02 0.01 0.02 0.03 0.05 0.06 0.07 0.09 0.10 0.13 0.19 0.26 0.30 0.37 0.39 0.42 0.46 0.47 0.50 0.56 0.63 0.69 0.69
0.39 0.34 0.25 0.12 0.09 0.08 0.10 0.11 0.08 0.08 0.07 0.08 0.11 0.20 0.17 0.11 0.07 0.07 0.05 0.04 0.04 0.04 0.04 0.04 0.05 0.06 0.08 0.11 0.13 0.16 0.19 0.23 0.29 0.35 0.45 0.51 0.59 0.64 0.66 0.70 0.73 0.73 0.69 0.62
0.30 0.25 0.12 0.06 0.03 0.03 0.07 0.12 0.06 0.06 0.05 0.05 0.06 0.13 0.16 0.15 0.11 0.07 0.07 0.07 0.06 0.07 0.08 0.10 0.11 0.14 0.19 0.23 0.28 0.33 0.39 0.43 0.48 0.53 0.58 0.60 0.64 0.67 0.64 0.60 0.54 0.45 0.36 0.27
0.27 0.22 0.05 0.02 0.01 0.02 0.08 0.12 0.05 0.05 0.06 0.05 0.05 0.05 0.06 0.07 0.09 0.10 0.10 0.10 0.11 0.12 0.14 0.16 0.20 0.27 0.35 0.42 0.47 0.51 0.54 0.57 0.61 0.64 0.62 0.57 0.49 0.41 0.32 0.24 0.19 0.14 0.10 0.07
0.15 0.17 0.06 0.01 0.02 0.04 0.06 0.04 0.03 0.04 0.04 0.05 0.04 0.04 0.03 0.03 0.04 0.07 0.10 0.14 0.18 0.19 0.21 0.23 0.28 0.33 0.38 0.44 0.46 0.46 0.46 0.45 0.42 0.36 0.29 0.23 0.18 0.14 0.10 0.07 0.04 0.03 0.02 0.01
0.07 0.07 0.04 0.02 0.03 0.03 0.02 0.02 0.02 0.02 0.03 0.03 0.02 0.02 0.03 0.02 0.02 0.03 0.05 0.08 0.10 0.12 0.14 0.15 0.17 0.19 0.24 0.23 0.19 0.17 0.15 0.14 0.11 0.09 0.06 0.04 0.04 0.03 0.02 0.02 0.01 0.01 0.01 0.01
0.04 0.03 0.02 0.02 0.02 0.02 0.02 0.02 0.02 0.01 0.02 0.03 0.03 0.03 0.04 0.03 0.03 0.03 0.03 0.04 0.05 0.06 0.07 0.07 0.07 0.09 0.11 0.10 0.07 0.05 0.04 0.04 0.03 0.03 0.02 0.02 0.02 0.02 0.02 0.02 0.02 0.02 0.02 0.02
0.05 0.03 0.04 0.04 0.03 0.02 0.02 0.02 0.01 0.02 0.02 0.03 0.03 0.03 0.03 0.02 0.02 0.02 0.02 0.02 0.03 0.03 0.04 0.05 0.05 0.05 0.05 0.04 0.05 0.04 0.04 0.03 0.03 0.03 0.03 0.03 0.03 0.03 0.04 0.03 0.04 0.03 0.03 0.03
0.06 0.04 0.04 0.03 0.02 0.02 0.02 0.02 0.02 0.03 0.02 0.02 0.02 0.02 0.02 0.03 0.03 0.03 0.03 0.03 0.03 0.04 0.05 0.06 0.06 0.06 0.05 0.05 0.05 0.06 0.06 0.05 0.05 0.05 0.05 0.05 0.04 0.04 0.05 0.04 0.04 0.04 0.03 0.02
0.04 0.04 0.03 0.02 0.02 0.03 0.04 0.04 0.04 0.04 0.03 0.02 0.02 0.03 0.03 0.03 0.04 0.04 0.04 0.05 0.04 0.04 0.05 0.06 0.06 0.06 0.06 0.06 0.06 0.06 0.07 0.07 0.06 0.05 0.05 0.05 0.05 0.04 0.04 0.05 0.06 0.05 0.04 0.03
0.03 0.03 0.04 0.03 0.03 0.02 0.02 0.02 0.03 0.03 0.04 0.04 0.03 0.03 0.03 0.04 0.04 0.04 0.05 0.05 0.05 0.05 0.06 0.07 0.06 0.06 0.06 0.06 0.06 0.06 0.07 0.08 0.08 0.06 0.06 0.06 0.06 0.06 0.05 0.05 0.04 0.04 0.05 0.06
0.02 0.02 0.03 0.03 0.03 0.03 0.02 0.02 0.03 0.03 0.03 0.04 0.04 0.04 0.04 0.04 0.04 0.05 0.05 0.05 0.05 0.05 0.06 0.07 0.06 0.06 0.06 0.05 0.05 0.06 0.07 0.07 0.07 0.07 0.07 0.07 0.07 0.06 0.06 0.05 0.04 0.03 0.04 0.05
0.03 0.03 0.03 0.03 0.03 0.03 0.03 0.03 0.03 0.03 0.03 0.03 0.03 0.03 0.03 0.04 0.04 0.04 0.05 0.05 0.06 0.06 0.06 0.06 0.07 0.07 0.06 0.05 0.05 0.06 0.06 0.08 0.09 0.07 0.07 0.07 0.07 0.07 0.06 0.06 0.06 0.05 0.05 0.05
0.05 0.05 0.05 0.04 0.04 0.04 0.03 0.03 0.03 0.03 0.04 0.04 0.04 0.04 0.04 0.04 0.04 0.05 0.05 0.05 0.06 0.06 0.06 0.06 0.06 0.06 0.06 0.06 0.06 0.06 0.07 0.09 0.11 0.09 0.07 0.07 0.08 0.08 0.08 0.08 0.07 0.06 0.05 0.07
0.08 0.07 0.07 0.06 0.05 0.05 0.05 0.05 0.05 0.05 0.05 0.05 0.05 0.05 0.05 0.05 0.05 0.05 0.05 0.05 0.06 0.06 0.07 0.07 0.08 0.08 0.08 0.08 0.07 0.07 0.08 0.09 0.09 0.09 0.09 0.09 0.11 0.10 0.09 0.09 0.08 0.07 0.06 0.08
0.09 0.09 0.08 0.07 0.08 0.09 0.09 0.09 0.09 0.08 0.07 0.06 0.06 0.06 0.06 0.06 0.06 0.06 0.06 0.05 0.05 0.06 0.07 0.08 0.09 0.09 0.09 0.10 0.11 0.10 0.09 0.10 0.10 0.10 0.11 0.13 0.14 0.11 0.10 0.09 0.09 0.08 0.08 0.08
0.11 0.12 0.11 0.11 0.11 0.12 0.11 0.10 0.09 0.09 0.07 0.07 0.07 0.07 0.06 0.06 0.06 0.06 0.06 0.06 0.07 0.07 0.08 0.08 0.08 0.08 0.08 0.09 0.11 0.10 0.10 0.10 0.11 0.11 0.12 0.12 0.12 0.11 0.10 0.10 0.10 0.09 0.09 0.09
0.11 0.12 0.13 0.14 0.14 0.14 0.13 0.12 0.11 0.11 0.11 0.10 0.10 0.10 0.09 0.07 0.06 0.05 0.06 0.07 0.08 0.08 0.08 0.08 0.07 0.06 0.07 0.08 0.10 0.09 0.09 0.10 0.11 0.12 0.13 0.13 0.13 0.13 0.12 0.11 0.11 0.11 0.10 0.10
0.13 0.14 0.13 0.12 0.12 0.12 0.12 0.11 0.11 0.11 0.12 0.12 0.11 0.10 0.09 0.08 0.07 0.06 0.06 0.07 0.08 0.09 0.07 0.06 0.06 0.07 0.08 0.09 0.08 0.08 0.09 0.10 0.11 0.11 0.12 0.12 0.12 0.12 0.11 0.11 0.11 0.10 0.10 0.10
0.13 0.14 0.14 0.14 0.13 0.12 0.12 0.11 0.11 0.11 0.11 0.11 0.10 0.10 0.09 0.08 0.07 0.07 0.08 0.08 0.07 0.07 0.06 0.05 0.07 0.09 0.10 0.09 0.08 0.09 0.10 0.10 0.11 0.11 0.11 0.11 0.11 0.11 0.11 0.10 0.10 0.10 0.10 0.09
0.11 0.12 0.13 0.11 0.10 0.09 0.10 0.10 0.11 0.12 0.11 0.11 0.11 0.11 0.10 0.08 0.07 0.07 0.07 0.08 0.08 0.08 0.07 0.07 0.09 0.09 0.09 0.09 0.09 0.10 0.10 0.10 0.10 0.10 0.10 0.10 0.10 0.10 0.10 0.10 0.09 0.09 0.08 0.08
0.08 0.08 0.09 0.09 0.09 0.08 0.08 0.08 0.09 0.11 0.12 0.11 0.10 0.10 0.10 0.09 0.09 0.09 0.08 0.08 0.07 0.08 0.08 0.09 0.10 0.10 0.10 0.09 0.10 0.10 0.10 0.10 0.10 0.10 0.09 0.09 0.09 0.09 0.09 0.09 0.09 0.08 0.07 0.07
0.04 0.04 0.04 0.05 0.05 0.06 0.06 0.07 0.08 0.09 0.09 0.08 0.09 0.09 0.09 0.08 0.08 0.08 0.08 0.08 0.09 0.10 0.09 0.09 0.10 0.10 0.10 0.10 0.10 0.10 0.10 0.10 0.10 0.09 0.08 0.08 0.09 0.09 0.08 0.08 0.08 0.08 0.07 0.06
0.02 0.02 0.02 0.02 0.03 0.03 0.04 0.04 0.05 0.06 0.07 0.09 0.10 0.10 0.10 0.08 0.08 0.08 0.08 0.09 0.09 0.10 0.10 0.10 0.10 0.11 0.10 0.10 0.09 0.09 0.09 0.09 0.08 0.08 0.08 0.08 0.08 0.07 0.07 0.07 0.07 0.06 0.06 0.06